Wind_Speed
10 11 11 11 10 10 9 7 7 7 7 6 6 6 6 7 8 8 10 11 13 14 16 17 19 20 22 23 25 27 28 30 31 33 34 35 37 38 39 41 42 43 44 45 45 46 46 46 46
13 13 13 12 13 12 9 8 8 8 7 6 5 6 7 8 10 12 13 15 16 18 19 21 22 24 25 26 28 29 31 33 34 36 37 39 40 42 43 44 45 46 47 48 49 50 50 51 51
15 15 14 13 14 13 10 8 7 6 6 6 6 8 10 11 13 15 16 18 19 21 22 23 24 26 27 29 30 32 33 35 37 38 40 41 43 44 46 47 48 49 51 52 53 53 54 54 55
16 15 14 13 12 11 9 7 6 6 6 7 8 11 12 14 16 18 19 20 21 23 24 25 26 28 29 31 32 34 35 37 38 40 42 44 46 47 49 51 53 54 55 56 57 58 59 59 59
15 14 14 12 10 8 6 6 6 7 8 9 11 13 15 17 18 19 21 22 23 24 25 27 28 29 31 33 34 36 38 39 41 43 45 47 50 52 54 57 59 61 62 64 65 65 66 66 66
13 10 11 10 7 6 6 6 8 9 11 13 14 16 18 19 20 22 23 24 24 26 27 28 30 31 33 35 36 38 40 42 44 46 49 52 55 58 61 64 66 68 71 72 73 74 74 74 74
10 8 8 7 5 6 7 9 11 13 14 16 17 18 20 21 22 23 23 24 26 27 28 30 31 33 34 36 38 40 42 45 47 50 54 57 61 64 68 71 74 76 79 81 82 83 84 83 82
7 6 6 6 7 9 11 13 15 16 17 19 19 19 21 22 22 23 24 25 27 28 30 31 33 34 36 38 40 42 45 48 51 55 59 63 66 70 73 77 80 84 87 89 91 93 93 92 92
5 6 8 9 11 12 14 16 17 19 19 20 20 20 21 22 23 24 25 26 28 29 31 32 34 36 38 40 43 45 49 52 56 60 64 67 71 75 79 83 86 90 93 96 98 100 101 100 100
7 9 11 13 15 16 18 19 19 20 20 20 21 21 21 22 23 24 26 27 29 30 32 34 36 38 40 43 46 49 53 57 60 64 68 72 75 79 83 87 91 95 98 101 103 105 105 105 105
11 12 15 16 18 18 19 19 19 19 19 19 20 21 22 23 24 26 27 29 30 32 34 36 38 40 43 46 49 53 56 60 64 67 71 75 79 83 87 91 95 99 102 104 104 104 103 102 101
14 15 17 18 19 19 19 19 18 19 18 19 19 21 22 24 25 27 29 30 32 34 36 38 40 43 46 49 52 56 59 63 67 70 74 78 82 86 90 94 99 101 101 100 98 95 92 90 88
16 17 18 18 18 18 17 17 18 18 18 19 19 21 22 24 26 28 30 32 34 36 38 40 43 45 48 51 55 58 61 65 69 73 77 80 84 88 93 97 99 98 94 89 84 80 76 74 73
17 17 17 17 17 16 16 16 17 17 18 18 20 21 23 26 28 30 32 34 36 38 40 43 45 48 51 54 57 61 64 68 71 75 79 83 87 91 95 96 94 89 83 78 73 69 67 67 67
16 16 15 15 16 16 15 16 17 17 18 19 20 23 25 27 29 32 34 36 38 40 42 45 47 50 53 56 59 62 66 70 73 77 81 85 89 92 95 92 87 80 75 71 68 67 67 67 66
14 14 13 14 15 15 16 15 16 17 18 20 22 25 27 29 31 34 36 38 40 42 44 46 49 52 55 57 61 64 68 71 75 79 83 87 90 93 91 85 79 73 70 69 68 68 67 67 68
12 13 12 12 15 16 17 17 16 19 20 22 24 27 29 31 33 35 37 40 42 44 45 47 50 53 56 59 62 65 69 73 77 81 84 87 90 90 85 79 73 70 69 69 68 68 68 69 69
12 13 14 14 15 16 17 18 18 20 22 24 26 28 30 32 34 37 39 41 43 45 46 48 51 54 56 59 63 66 70 74 78 82 85 88 89 86 80 74 70 69 68 68 68 68 69 70 71
11 12 13 14 15 16 17 19 19 21 23 25 27 29 31 33 35 37 40 42 43 45 47 49 52 54 57 60 63 67 71 75 79 82 85 87 86 82 76 71 69 68 67 67 67 68 69 69 69
9 11 12 12 14 16 17 19 20 21 24 26 28 30 32 34 36 38 40 42 44 46 48 50 52 55 58 61 64 68 72 76 79 82 85 86 83 78 72 69 68 67 67 67 67 68 69 67 65
8 9 11 12 13 15 17 17 19 21 23 26 28 30 32 35 37 38 41 43 45 47 49 51 53 56 59 62 65 69 73 76 79 82 84 83 80 75 70 68 67 67 66 67 67 69 68 65 60
7 8 10 11 13 14 16 17 18 21 24 26 28 31 33 35 38 40 42 44 46 48 50 52 54 57 60 63 66 69 73 76 79 82 82 81 77 72 69 68 67 66 66 66 67 68 66 62 57
7 7 9 11 12 14 16 18 19 22 24 26 29 31 34 37 40 42 44 46 48 50 52 54 56 59 61 64 67 70 74 76 79 81 81 79 74 70 68 67 67 66 65 66 67 66 63 58 54
7 7 8 10 11 13 16 19 21 23 25 27 30 33 36 38 41 44 46 49 51 53 54 56 58 60 63 65 68 71 74 76 79 80 79 77 72 69 67 66 66 66 65 66 66 65 60 55 50
8 8 9 10 12 14 16 18 20 23 26 29 31 34 37 39 42 45 48 51 53 55 57 59 61 62 64 66 69 72 74 76 78 79 78 75 71 67 66 66 66 65 64 65 65 63 58 52 48
10 10 11 12 13 14 16 17 20 22 26 29 32 35 38 41 44 47 50 52 55 57 59 61 63 64 66 68 70 72 74 76 78 78 77 74 70 67 66 65 65 64 64 64 64 61 56 51 46
12 12 12 13 14 15 17 20 21 24 27 29 33 36 39 42 45 48 51 54 57 59 62 63 65 67 68 69 71 73 75 76 77 77 76 73 69 67 65 65 64 64 63 62 63 60 55 50 44
15 14 15 15 16 18 19 22 24 27 30 32 34 36 39 42 46 49 52 55 58 61 63 65 67 68 69 70 72 73 75 76 76 76 74 71 68 66 65 64 64 63 62 61 61 58 54 49 43
17 17 17 18 19 21 22 23 26 28 31 34 36 39 41 44 47 50 53 56 59 62 64 66 68 70 71 71 72 74 75 75 76 75 73 71 68 66 64 64 63 63 61 60 59 57 53 48 43
20 19 20 20 21 22 24 25 28 30 32 34 37 40 42 45 48 51 54 57 60 63 65 67 69 71 72 72 73 74 75 75 75 75 73 70 67 65 64 63 63 62 61 59 58 56 52 48 43
Wind_Direction
107 109 108 107 104 92 87 86 86 84 75 63 51 36 19 5 356 347 336 328 322 318 315 312 310 309 308 307 306 305 304 303 302 301 299 298 296 295 293 291 290 288 287 285 283 281 279 276 274
106 106 106 107 105 95 93 88 85 79 71 54 33 9 349 338 331 327 323 319 317 315 314 313 312 312 311 309 308 307 306 305 303 302 301 299 298 296 294 293 291 289 287 285 283 281 279 277 274
104 104 103 101 92 92 91 84 76 66 48 24 0 342 330 323 320 320 318 317 316 315 315 314 313 313 312 311 310 308 307 305 304 303 301 300 299 297 295 294 292 290 288 285 283 281 279 277 274
101 100 98 92 87 85 81 70 55 36 15 356 340 328 322 318 317 317 317 317 316 316 315 315 314 314 313 312 310 309 308 307 305 304 303 302 300 299 297 296 294 292 290 288 285 282 280 277 275
97 96 94 86 78 72 61 41 20 2 347 336 329 323 320 318 317 317 317 317 317 317 317 316 316 315 314 313 312 311 310 309 308 306 305 304 303 302 300 298 296 294 292 289 287 284 281 278 275
92 87 86 80 65 45 22 1 348 340 332 326 324 322 319 318 318 318 318 319 319 318 318 317 317 316 315 314 313 312 312 311 309 308 308 307 305 304 302 300 298 296 293 291 288 285 283 280 277
85 72 63 57 33 7 350 340 334 331 326 323 323 322 318 319 319 319 320 320 319 318 318 318 318 317 315 314 314 314 313 312 311 311 310 309 307 305 304 302 300 297 295 292 289 287 284 281 278
65 46 31 16 357 342 334 330 327 326 324 323 322 323 320 320 320 320 320 320 319 319 319 319 318 317 316 316 315 315 314 314 313 313 312 310 309 307 305 303 300 298 296 293 291 288 285 281 278
27 8 355 346 339 331 328 326 325 325 325 324 324 323 322 321 321 320 320 320 320 320 320 319 319 318 318 318 317 317 317 316 315 314 313 311 309 307 304 302 300 298 296 294 291 288 285 282 279
353 343 336 332 330 327 326 325 325 326 325 325 325 324 323 322 321 321 321 321 321 321 320 320 320 320 320 320 319 319 318 317 316 315 313 311 308 306 305 303 300 298 296 294 291 289 286 283 280
337 332 329 327 327 326 325 325 325 327 326 326 325 323 323 322 322 322 322 323 322 322 322 322 322 322 321 321 320 319 318 317 316 314 313 311 309 307 305 303 301 299 296 294 292 290 288 285 282
329 328 327 326 326 326 326 327 328 328 328 328 326 324 323 322 323 323 324 324 324 323 323 323 323 323 322 321 320 319 318 317 316 314 312 311 310 309 306 304 302 300 298 296 294 291 288 286 282
327 327 327 327 328 329 330 330 330 330 331 329 328 325 325 325 325 325 326 325 325 325 325 324 324 323 322 321 320 319 318 317 316 315 314 313 312 310 308 306 305 303 301 299 296 294 290 286 282
328 329 331 331 331 332 334 333 334 334 333 332 330 328 327 327 327 327 327 326 326 326 326 325 324 323 322 321 320 319 319 318 317 317 315 315 314 312 310 309 308 306 304 303 301 297 294 290 286
332 334 336 337 336 338 340 341 338 338 336 334 332 331 330 330 330 329 328 328 327 327 326 325 324 323 322 321 321 321 320 320 319 319 318 317 316 315 313 313 312 310 309 307 304 302 299 295 290
336 340 342 341 343 344 346 352 342 340 339 337 335 334 334 333 332 331 329 329 328 327 326 325 324 323 323 322 322 322 322 322 321 321 321 320 319 318 318 317 315 314 312 310 308 305 302 298 294
339 343 354 355 349 350 349 355 351 343 343 341 339 338 337 336 334 332 330 329 328 327 326 325 325 324 324 324 324 324 324 324 323 323 323 323 322 321 321 320 318 317 315 313 311 308 305 302 297
347 351 355 359 354 354 353 354 356 347 346 344 342 341 339 337 336 333 332 330 329 328 327 326 326 325 325 325 326 326 326 326 326 326 326 325 324 324 324 323 321 320 318 316 313 311 308 305 301
346 350 353 356 356 358 357 356 356 352 349 347 345 343 341 339 338 335 333 333 332 330 329 328 328 327 327 327 328 328 328 328 328 328 328 328 327 327 326 325 324 323 321 319 317 315 313 309 305
342 347 353 359 356 359 360 358 358 356 353 350 348 346 344 342 340 339 336 336 335 334 332 331 330 329 329 329 329 330 330 330 330 330 331 331 330 330 329 328 327 326 325 323 321 319 318 315 311
337 344 352 360 2 1 2 1 358 359 356 354 352 350 348 346 344 343 341 339 338 337 335 334 333 332 331 331 332 332 332 333 333 333 333 334 333 332 332 331 330 329 328 327 326 325 323 321 318
326 338 349 356 0 1 3 6 3 2 1 358 356 354 352 350 348 348 346 344 342 340 338 337 336 335 334 334 334 334 335 335 335 336 336 336 335 335 334 333 333 332 331 331 330 330 328 326 325
312 328 342 350 355 357 1 3 6 4 3 0 358 356 355 353 352 351 350 348 346 344 342 340 339 338 337 337 337 337 337 337 338 338 338 339 338 337 336 336 335 335 335 334 335 334 333 331 329
298 316 330 339 346 350 359 0 3 3 2 0 359 357 356 354 353 352 351 350 349 347 345 343 342 341 340 339 339 339 339 339 340 341 341 341 340 339 339 338 338 338 338 338 338 338 337 335 334
287 301 311 321 336 349 354 356 358 359 359 358 357 357 356 354 353 352 352 351 350 349 348 346 345 343 342 341 341 341 341 341 342 343 343 343 342 341 341 341 341 341 341 341 342 341 341 339 338
278 290 305 320 333 340 344 348 352 354 355 355 355 355 354 353 352 352 352 352 351 350 349 348 347 346 345 344 343 343 343 343 344 345 345 345 344 344 343 343 343 343 343 344 345 345 344 343 342
275 286 299 310 319 326 334 340 344 349 351 352 352 352 352 351 351 351 351 351 351 351 350 349 349 348 347 346 345 345 345 345 346 346 347 346 346 345 346 346 346 346 346 346 347 348 347 347 345
271 282 294 303 311 320 329 336 340 344 345 347 348 349 349 350 350 350 350 350 350 350 350 350 349 349 348 347 346 346 346 346 347 348 348 348 347 347 348 348 348 348 348 349 350 350 350 349 348
271 279 288 297 307 316 323 331 334 337 340 341 343 344 346 347 348 349 349 349 349 350 350 350 350 350 349 348 348 347 347 348 348 350 350 350 349 349 349 349 350 350 350 351 352 352 352 352 351
270 277 285 294 302 310 317 324 328 331 334 336 338 340 342 343 345 346 347 348 348 349 349 349 350 350 350 349 349 348 348 349 350 351 351 351 351 351 351 351 351 352 352 353 354 354 354 354 353
Height
5876 5877 5878 5879 5881 5881 5881 5881 5881 5881 5882 5882 5882 5882 5881 5881 5882 5883 5880 5878 5877 5876 5875 5873 5872 5870 5868 5866 5865 5863 5861 5859 5857 5855 5853 5851 5849 5847 5845 5843 5841 5839 5837 5836 5835 5834 5833 5833 5833
5878 5878 5880 5881 5880 5881 5882 5882 5883 5883 5883 5882 5882 5882 5882 5881 5880 5879 5878 5876 5875 5874 5872 5870 5868 5866 5864 5863 5861 5858 5856 5854 5851 5849 5847 5844 5842 5839 5837 5835 5833 5831 5829 5827 5826 5825 5824 5823 5823
5879 5880 5882 5882 5882 5882 5884 5884 5884 5884 5883 5883 5883 5883 5882 5881 5879 5877 5876 5874 5872 5871 5869 5867 5865 5862 5860 5858 5856 5853 5851 5848 5845 5843 5840 5837 5834 5831 5829 5826 5824 5821 5819 5817 5815 5814 5813 5812 5811
5882 5883 5884 5884 5884 5884 5885 5886 5885 5885 5884 5884 5883 5882 5880 5879 5877 5875 5873 5871 5869 5867 5865 5863 5861 5858 5856 5853 5851 5848 5845 5842 5839 5836 5832 5829 5826 5823 5819 5816 5813 5810 5807 5805 5803 5801 5799 5799 5798
5884 5886 5886 5886 5886 5886 5887 5886 5886 5885 5884 5883 5882 5881 5878 5877 5874 5872 5870 5868 5866 5864 5861 5859 5856 5854 5851 5848 5845 5841 5838 5835 5831 5828 5824 5820 5816 5812 5808 5804 5800 5796 5793 5790 5787 5785 5784 5783 5782
5888 5888 5887 5887 5888 5888 5887 5886 5886 5885 5883 5882 5881 5879 5876 5874 5871 5869 5867 5865 5862 5860 5857 5855 5852 5849 5845 5842 5838 5835 5831 5827 5823 5819 5814 5810 5805 5800 5795 5790 5785 5780 5776 5772 5769 5766 5764 5763 5763
5890 5890 5889 5888 5888 5888 5887 5886 5885 5883 5881 5879 5878 5876 5872 5870 5868 5866 5863 5861 5858 5856 5853 5850 5847 5843 5840 5836 5832 5828 5823 5819 5814 5809 5804 5798 5792 5786 5780 5774 5768 5762 5756 5751 5747 5743 5741 5740 5739
5891 5891 5889 5889 5888 5888 5886 5884 5883 5881 5879 5877 5874 5873 5870 5867 5865 5862 5860 5857 5854 5851 5848 5845 5841 5838 5834 5829 5825 5820 5815 5810 5805 5799 5793 5786 5779 5772 5764 5757 5749 5742 5735 5728 5722 5717 5713 5712 5711
5891 5892 5890 5889 5888 5887 5885 5883 5880 5878 5876 5873 5871 5869 5867 5864 5861 5859 5856 5853 5850 5847 5843 5839 5836 5831 5827 5822 5817 5812 5806 5800 5794 5788 5781 5774 5766 5758 5749 5740 5730 5721 5712 5703 5695 5688 5683 5680 5679
5892 5891 5889 5888 5886 5884 5882 5880 5877 5875 5873 5870 5867 5865 5862 5860 5857 5855 5852 5849 5846 5842 5838 5834 5829 5825 5820 5815 5809 5803 5797 5791 5784 5777 5769 5761 5752 5743 5733 5722 5710 5699 5687 5677 5666 5657 5651 5646 5645
5891 5890 5888 5886 5884 5882 5879 5877 5875 5872 5870 5868 5865 5862 5859 5856 5853 5851 5848 5844 5841 5837 5832 5828 5823 5818 5812 5807 5801 5795 5788 5781 5774 5766 5757 5747 5737 5726 5714 5701 5688 5675 5662 5649 5638 5628 5620 5614 5610
5890 5888 5886 5884 5881 5879 5877 5874 5872 5869 5867 5865 5862 5859 5856 5853 5850 5847 5843 5840 5836 5831 5826 5821 5816 5810 5805 5798 5792 5785 5778 5771 5762 5754 5744 5733 5721 5708 5694 5679 5663 5648 5633 5620 5609 5600 5592 5586 5580
5888 5886 5884 5881 5879 5877 5874 5872 5870 5867 5864 5861 5859 5856 5853 5849 5846 5842 5839 5834 5830 5825 5820 5815 5809 5803 5797 5791 5784 5777 5769 5760 5751 5740 5729 5716 5703 5688 5672 5654 5637 5620 5605 5592 5581 5573 5566 5559 5555
5886 5884 5881 5879 5876 5874 5872 5870 5867 5865 5862 5859 5856 5853 5849 5846 5842 5838 5834 5829 5825 5820 5814 5808 5802 5796 5789 5782 5775 5767 5758 5749 5738 5726 5712 5698 5683 5666 5648 5629 5611 5595 5580 5568 5558 5549 5542 5536 5531
5883 5881 5879 5877 5874 5872 5870 5868 5865 5862 5859 5856 5853 5849 5846 5842 5838 5834 5829 5824 5819 5814 5808 5802 5796 5789 5782 5774 5766 5757 5747 5736 5724 5710 5695 5679 5662 5644 5624 5605 5588 5572 5559 5548 5538 5529 5521 5514 5508
5881 5880 5878 5875 5872 5870 5869 5867 5863 5859 5856 5853 5850 5846 5842 5838 5834 5829 5824 5819 5813 5808 5802 5796 5788 5781 5773 5765 5756 5746 5735 5723 5709 5694 5678 5660 5641 5622 5602 5584 5567 5553 5541 5529 5519 5509 5500 5492 5484
5880 5878 5876 5874 5870 5867 5865 5863 5860 5856 5853 5850 5846 5842 5838 5834 5830 5825 5820 5814 5808 5802 5796 5789 5781 5773 5765 5756 5746 5735 5723 5709 5695 5679 5661 5643 5622 5602 5583 5565 5550 5537 5525 5512 5500 5490 5479 5469 5460
5878 5875 5873 5871 5868 5866 5863 5860 5857 5853 5850 5846 5843 5839 5835 5831 5826 5820 5815 5809 5803 5796 5789 5782 5774 5765 5756 5746 5735 5723 5710 5696 5680 5663 5645 5625 5605 5585 5566 5550 5535 5522 5509 5496 5483 5471 5460 5447 5434
5876 5874 5872 5869 5866 5864 5861 5858 5855 5851 5847 5844 5840 5836 5831 5827 5822 5816 5810 5804 5797 5790 5782 5774 5766 5757 5747 5736 5725 5712 5698 5683 5666 5648 5629 5609 5589 5569 5551 5536 5522 5508 5494 5480 5466 5453 5440 5426 5410
5875 5873 5871 5869 5865 5862 5859 5856 5852 5849 5845 5841 5837 5833 5828 5823 5817 5812 5805 5798 5791 5783 5775 5767 5758 5748 5738 5726 5714 5701 5687 5671 5653 5635 5615 5595 5574 5555 5538 5523 5508 5494 5480 5465 5450 5435 5420 5405 5389
5874 5872 5869 5867 5864 5861 5858 5855 5851 5847 5843 5839 5834 5829 5824 5819 5813 5807 5800 5792 5785 5776 5768 5759 5749 5739 5728 5716 5703 5689 5674 5658 5640 5622 5601 5581 5561 5542 5526 5511 5496 5481 5466 5451 5435 5419 5401 5386 5372
5872 5870 5868 5865 5863 5860 5858 5854 5850 5845 5841 5836 5832 5826 5821 5815 5808 5801 5794 5786 5778 5770 5760 5751 5741 5730 5718 5706 5693 5678 5663 5647 5629 5609 5589 5569 5549 5531 5515 5500 5484 5469 5454 5438 5422 5404 5386 5369 5356
5871 5868 5866 5863 5861 5858 5854 5851 5848 5843 5839 5834 5829 5823 5817 5811 5804 5796 5789 5781 5772 5763 5753 5743 5732 5721 5708 5696 5682 5667 5651 5634 5616 5598 5578 5558 5539 5521 5505 5490 5474 5459 5443 5427 5410 5392 5375 5359 5344
5868 5867 5864 5862 5859 5857 5852 5848 5845 5840 5835 5831 5826 5820 5813 5807 5799 5792 5783 5775 5766 5756 5746 5735 5724 5712 5699 5686 5672 5657 5641 5624 5606 5587 5567 5548 5530 5513 5497 5481 5465 5449 5434 5417 5400 5383 5366 5351 5337
5866 5865 5863 5860 5857 5853 5849 5845 5842 5837 5832 5827 5822 5816 5809 5803 5795 5787 5778 5769 5760 5749 5739 5727 5716 5703 5690 5676 5662 5647 5630 5613 5595 5577 5558 5540 5522 5506 5490 5473 5458 5442 5426 5409 5392 5375 5359 5344 5331
5863 5862 5861 5857 5853 5850 5847 5843 5840 5835 5829 5824 5818 5811 5805 5798 5790 5782 5773 5764 5754 5743 5732 5720 5708 5695 5682 5668 5653 5638 5621 5604 5586 5568 5549 5531 5514 5498 5482 5467 5451 5434 5418 5402 5386 5369 5353 5340 5327
5860 5858 5857 5854 5850 5848 5844 5840 5836 5831 5826 5820 5814 5808 5801 5794 5786 5777 5768 5758 5748 5737 5726 5714 5701 5688 5674 5660 5645 5629 5613 5596 5578 5560 5541 5524 5507 5492 5476 5460 5445 5429 5413 5397 5381 5365 5350 5336 5324
5857 5855 5853 5850 5847 5843 5840 5835 5831 5825 5820 5815 5810 5804 5797 5789 5781 5772 5763 5753 5742 5732 5720 5707 5694 5681 5667 5652 5637 5622 5605 5588 5571 5553 5535 5518 5502 5486 5470 5455 5440 5424 5409 5393 5378 5362 5347 5334 5322
5853 5851 5848 5845 5842 5838 5834 5833 5827 5821 5816 5810 5804 5798 5791 5784 5775 5766 5757 5747 5737 5726 5714 5701 5688 5674 5660 5646 5630 5615 5599 5582 5565 5547 5530 5513 5497 5481 5466 5451 5436 5421 5405 5390 5375 5360 5346 5334 5322
5848 5846 5844 5842 5838 5833 5829 5830 5822 5817 5811 5806 5799 5793 5786 5778 5770 5761 5752 5742 5731 5720 5708 5695 5682 5668 5654 5640 5624 5609 5593 5576 5559 5542 5525 5508 5492 5477 5462 5447 5432 5417 5402 5388 5373 5359 5346 5333 5322